Regional Weather Roundup
Issued by NWS

Home | Current Version | Previous Version | Graphics & Text | Print | Product List | Glossary On
Versions: 1 2 3 4 5 6 7 8 9 10 11 12 13 14 15 16 17 18 19 20 21 22 23 24 25 26 27
000
ASUS45 KTFX 250010
RWRMT
MONTANA REGIONAL WEATHER ROUNDUP
NATIONAL WEATHER SERVICE GREAT FALLS MT
600 PM MDT TUE MAY 24 2016

NOTE: "FAIR" INDICATES FEW OR NO CLOUDS BELOW 12000 FEET WITH NO
SIGNIFICANT WEATHER AND/OR OBSTRUCTIONS TO VISIBILITY.

MTZ001>007-043-250100-
WEST OF THE DIVIDE

CITY           SKY/WX    TMP DP  RH WIND       PRES   REMARKS
KALISPELL      SUNNY     59  40  49 VRB3      29.89F
MISSOULA       MOSUNNY   60  39  45 N10       29.91F
BUTTE          CLOUDY    49  37  63 CALM      29.92R
MULLAN PASS    CLOUDY    41  41 100 N5        29.96R
ANACONDA         N/A     48  41  76 N9        29.93R
DEER LODGE       N/A     48  43  81 CALM      29.94R
EUREKA           N/A     63  41  45 SW6       29.88S
HAMILTON         N/A     57  41  54 NW7       29.90S
LIBBY            N/A     66  37  34 W5        29.87F
$$

MTZ008-052>055-250100-
SOUTHWEST MONTANA

CITY           SKY/WX    TMP DP  RH WIND       PRES   REMARKS
BOZEMAN        CLOUDY    58  39  49 VRB5      29.88F
DILLON         CLOUDY    57  34  41 MISG      29.86F
ENNIS          MOSUNNY   57  37  47 NW8       29.92F
$$

MTZ009-010-012-014-046-048-049-054-250100-
EAST SLOPES AND CENTRAL MONTANA

CITY           SKY/WX    TMP DP  RH WIND       PRES   REMARKS
CUT BANK       PTSUNNY   56  38  50 SW5       29.87S
GREAT FALLS    PTSUNNY   58  35  42 CALM      29.88R
MALMSTROM AFB  MOSUNNY   59  35  41 NW3       29.88S
HELENA         CLOUDY    57  39  51 NW12G22   29.88S
CHOTEAU          N/A     55  37  50 W3        29.89S
$$

MTZ011-013-016-021-045-047-050-051-250100-
NORTH CENTRAL MONTANA

CITY           SKY/WX    TMP DP  RH WIND       PRES   REMARKS
HAVRE          CLOUDY    59  42  53 VRB3      29.86F
LEWISTOWN      CLOUDY    56  42  59 NW6       29.90S
N BAR RANCH    PTSUNNY   48  43  81 CALM      29.93S
CHINOOK          N/A     59  43  55 W7        29.87S
$$

MTZ017>020-022>027-061-062-250100-
NORTHEAST MONTANA

CITY           SKY/WX    TMP DP  RH WIND       PRES   REMARKS
GLASGOW        PTSUNNY   63  41  44 W5        29.86S
JORDAN           N/A     64  39  39 W6        29.86F
SIDNEY         MOSUNNY   70  40  33 W7        29.85F
WOLF POINT     MOSUNNY   68  41  37 W12       29.86F
PLENTYWOOD       N/A     64  37  36 SW15      29.86F
POPLAR           N/A     66  39  37 W12       29.86F
$$

MTZ028>42-056>058-250100-
SOUTHCENTRAL AND SOUTHEAST MONTANA

CITY           SKY/WX    TMP DP  RH WIND       PRES   REMARKS
BAKER          PTSUNNY   69  40  34 E8        29.82F
BILLINGS       CLOUDY    61  39  44 VRB5      29.87F
LIVINGSTON     MOSUNNY   60  35  39 VRB5      29.86F
MILES CITY     MOSUNNY   70  40  33 N8        29.81F
FORSYTH          N/A     66  43  42 N3        29.81F
$$

REGIONAL REPORTS...DAKOTAS

CITY           SKY/WX    TMP DP  RH WIND       PRES   REMARKS
WILLISTON      MOSUNNY   71  37  28 W7        29.85F
MINOT          SUNNY     76  39  26 S6        29.85F
DICKINSON      CLOUDY    65  42  43 NE9       29.83F
BEACH          LGT RAIN  66  37  34 N6        29.88F
CROSBY           N/A     68  36  30 SW9       29.87F
WATFORD CITY     N/A     68  37  32 SW6       29.86F
BISMARCK       SUNNY     77  43  29 S12       29.84F
GRAND FORKS    MOSUNNY   79  48  33 N3        29.85F
FARGO          SUNNY     83  40  21 N9        29.84S
BUFFALO SD       N/A     73  41  31 SE18      29.75F
RAPID CITY     LGT RAIN  61  50  67 W10       29.88R
$$

REGIONAL REPORTS...WYOMING/IDAHO/WASHINGTON

CITY           SKY/WX    TMP DP  RH WIND       PRES   REMARKS
GILLETTE       TSTM      53  48  83 S13G43    29.81R
SHERIDAN       CLOUDY    63  40  42 S20G29    29.79F
BUFFALO WY     CLOUDY    58  39  49 W18G36    29.83F
CODY           CLOUDY    52  45  76 N9        29.89R
YELLOWSTONE LA   N/A     38  35  89 CALM      29.99R
IDAHO FALLS    CLOUDY    58  39  49 NE10      29.83S
SALMON         MOSUNNY   59  36  41 NW5       29.85S
BOISE          MOSUNNY   71  28  20 NW12G22   29.80F
SPOKANE        PTSUNNY   63  46  54 CALM      29.90S
$$

REGIONAL REPORTS...ALBERTA

CITY           SKY/WX    TMP DP  RH WIND       PRES   REMARKS
EDMONTON       MOSUNNY   63  45  51 S12G21    29.82F
CALGARY        MOSUNNY   63  39  42 SE9G24    29.84S
MEDICINE HAT   LGT RAIN  55  46  71 VRB2      29.86S
CARDSTON         N/A     59  37  44 N2          N/A
$$

REGIONAL REPORTS...SASKATCHEWAN

CITY           SKY/WX    TMP DP  RH WIND       PRES   REMARKS
SWIFT CURRENT  CLOUDY    54  46  76 W8        29.82R
REGINA         PTSUNNY   63  43  48 S14       29.83R
SASKATOON      PTSUNNY   59  48  67 NE15G22   29.85F
VAL MARIE        N/A     52  46  82 SE3         N/A
ROCKGLEN         N/A     50  45  81 W13         N/A
$$




USA.gov is the U.S. government's official web portal to all federal, state and local government web resources and services.